Lowell, ID

7:18 AM MDT on June 27, 2017 (GMT -0600)
Lowell

Weather History for KP69 - April, 2013

Change the Weather History Date:

Monday, April 8, 2013

  Actual Average Record
Temperature  
Mean Temperature 41 °F -  
Max Temperature 46 °F 55 °F 81 °F (2016)
Min Temperature 36 °F 34 °F 33 °F (2012)
Degree Days  
Heating Degree Days 24    
Moisture  
Dew Point 39 °F    
Average Humidity 90    
Maximum Humidity 97    
Minimum Humidity 71    
Precipitation  
Precipitation 0.09 in - - ()
Sea Level Pressure  
Sea Level Pressure 30.01 in    
Wind  
Wind Speed 2 mph (SSE)    
Max Wind Speed 14 mph    
Max Gust Speed 22 mph    
Averages and records for this station are not official NWS values.
T = Trace of Precipitation, MM = Missing Value Source: NWS Daily Summary

Daily Weather History Graph

Daily Weather History Graph

Search for Another Location

Airport or City:

Trip Planner

Search our weather history database for the weather conditions in past years. The results will help you decide how hot, cold, wet, or windy it might be!

Date:

Astronomy

Apr. 08, 2013 Rise Set
Actual Time 7:07 AM MDT 8:19 PM MDT
Civil Twilight 6:37 AM MDT 8:50 PM MDT
Nautical Twilight 6:00 AM MDT 9:27 PM MDT
Astronomical Twilight 5:21 AM MDT 10:06 PM MDT
Moon 6:04 AM MDT (4/8) 6:55 PM MDT (4/8)
Length of Visible Light 14h 13m
Length of Day
13h 11m
Waning Crescent, 3% of the Moon is Illuminated
Apr 8
Waning Crescent
Apr 10
New
Apr 18
First Quarter
Apr 25
Full
May 2
Last Quarter

Hourly Weather History & Observations

Time (MDT) Temp. Windchill Dew Point Humidity Pressure Visibility Wind Dir Wind Speed Gust Speed Precip Events Conditions
12:52 AM 39.9 °F 37.8 °F 39.0 °F 97% 29.86 in - North 3.5 mph - N/A   Unknown
1:52 AM 39.9 °F - 39.0 °F 97% 29.86 in - Calm Calm - N/A   Unknown
2:52 AM 39.0 °F - 37.9 °F 96% 29.87 in - Calm Calm - N/A   Unknown
3:52 AM 39.9 °F - 39.0 °F 97% 29.87 in - Calm Calm - N/A   Unknown
4:52 AM 39.9 °F - 39.0 °F 97% 29.88 in - Calm Calm - N/A   Unknown
5:52 AM 39.9 °F - 39.0 °F 97% 29.89 in - Calm Calm - N/A   Unknown
6:52 AM 39.9 °F - 39.0 °F 97% 29.91 in - Calm Calm - N/A   Unknown
7:52 AM 39.9 °F - 39.0 °F 97% 29.94 in - Calm Calm - N/A   Unknown
8:52 AM 41.0 °F - 39.0 °F 93% 29.96 in - Calm Calm - N/A   Unknown
9:52 AM 42.1 °F - 39.0 °F 89% 29.97 in - Calm Calm - N/A   Unknown
10:52 AM 44.1 °F - 39.9 °F 85% 29.98 in - Calm Calm - N/A   Unknown
11:52 AM 45.0 °F 43.5 °F 39.0 °F 80% 30.00 in - SE 3.5 mph - N/A   Unknown
12:52 PM 46.9 °F - 37.9 °F 71% 30.00 in - SSE 4.6 mph - N/A   Unknown
1:52 PM 44.1 °F 37.4 °F 37.9 °F 79% 30.04 in - North 13.8 mph 21.9 mph N/A   Unknown
2:52 PM 42.1 °F 39.2 °F 39.0 °F 89% 30.06 in - SSE 4.6 mph - 0.09 in   Unknown
3:52 PM 46.9 °F - 41.0 °F 80% 30.05 in - South 5.8 mph - N/A   Unknown
4:52 PM 46.0 °F 42.5 °F 39.9 °F 79% 30.04 in - South 6.9 mph - N/A   Unknown
5:52 PM 46.0 °F 43.9 °F 42.1 °F 86% 30.06 in - Variable 4.6 mph - N/A   Unknown
6:52 PM 45.0 °F - 42.1 °F 90% 30.08 in - Calm Calm - N/A   Unknown
7:52 PM 43.0 °F - 42.1 °F 97% 30.12 in - Calm Calm - N/A   Unknown
8:52 PM 41.0 °F - 37.0 °F 86% 30.16 in - Calm Calm - N/A   Unknown
9:52 PM 37.0 °F - 36.0 °F 96% 30.18 in - Calm Calm - N/A   Unknown
10:52 PM 36.0 °F - 35.1 °F 97% 30.22 in - Calm Calm - N/A   Unknown
11:52 PM 36.0 °F - 35.1 °F 97% 30.23 in - Calm Calm - N/A   Unknown